GFSMA_sfc_30mbdewp_000.txt.gz
Dewpoint
55 55 56 56 57 56 56 55 52 49 47 48 50 51 51 52 53 54 53 52 52 51 51 54 59 59 58 60 61 61 61 62 62 62 62 63 63 63 63 64 63 63 62
56 55 55 56 55 55 54 49 45 43 43 45 45 43 42 44 49 48 45 44 47 49 50 50 51 56 60 59 59 60 61 62 62 62 62 62 62 62 63 64 63 63 62
56 56 55 56 55 53 48 47 45 42 40 39 37 39 40 41 45 41 38 40 42 44 49 53 54 54 56 57 60 60 60 61 61 62 62 62 62 62 62 63 63 63 62
53 51 51 52 53 50 47 47 38 34 35 36 35 35 36 35 35 34 36 36 40 43 49 54 56 57 57 57 57 56 59 59 60 61 62 62 62 62 62 62 62 62 62
50 46 45 46 47 44 40 43 35 35 34 33 33 33 34 33 34 34 33 35 37 40 45 48 50 55 55 53 52 53 54 57 59 60 60 61 62 63 62 61 61 61 62
48 47 45 44 43 40 38 37 34 36 35 33 34 33 33 33 34 33 33 34 37 39 41 43 46 46 47 50 50 53 53 54 57 58 59 59 61 61 62 61 61 61 61
47 47 45 44 44 41 39 37 36 34 34 36 33 31 31 33 33 33 32 36 34 38 38 42 42 43 45 47 47 53 54 51 48 54 56 57 59 60 60 60 61 61 61
41 45 45 42 42 42 40 38 36 34 34 35 31 32 25 27 29 34 34 28 36 36 36 37 36 39 43 43 45 43 40 49 51 48 50 52 54 56 58 60 61 62 60
37 42 43 43 41 41 40 39 37 35 33 35 35 28 29 25 30 29 28 27 30 31 34 32 36 35 36 39 43 42 43 46 53 43 44 46 50 54 56 57 60 59 62
36 37 42 44 41 40 40 40 38 37 34 33 35 37 32 30 17 16 25 31 25 26 28 33 33 34 38 39 40 40 43 46 44 47 44 45 47 51 52 54 54 59 60
38 37 38 39 41 39 39 38 37 36 32 31 24 28 26 31 30 21 18 19 23 27 30 31 33 36 32 35 39 40 41 41 43 46 48 48 47 49 50 50 52 54 59
36 35 38 38 37 35 33 31 30 28 29 30 30 28 27 23 21 23 25 23 22 25 28 29 32 32 33 36 38 38 41 43 48 49 49 47 45 46 48 48 49 50 58
32 33 33 34 35 36 37 37 36 36 36 36 35 34 33 33 33 32 29 26 24 24 26 31 31 31 32 33 36 39 41 39 42 46 45 48 48 48 48 46 47 50 52
33 36 37 37 36 38 38 38 37 38 38 38 36 36 35 34 33 32 29 25 24 25 26 26 29 29 31 31 33 36 38 36 35 43 43 46 47 47 46 45 44 45 49
36 37 37 37 37 38 39 36 35 33 35 35 34 34 33 33 32 32 31 30 28 24 23 23 24 29 29 31 32 37 36 33 37 39 43 46 44 46 41 43 41 44 44
37 37 36 34 34 32 32 34 35 36 36 35 34 32 31 30 29 29 29 30 31 29 25 25 25 27 28 29 31 29 31 37 37 36 36 38 39 41 41 42 44 39 42
33 30 30 30 29 31 32 33 33 32 29 29 28 25 24 25 24 25 27 28 28 29 27 26 28 28 29 30 28 27 33 34 36 34 33 35 36 36 38 41 43 41 42
27 27 27 27 28 27 28 28 26 25 24 22 22 24 23 24 25 26 27 27 28 29 28 26 28 28 28 31 32 32 31 32 33 33 33 32 31 34 38 39 40 42 41
31 29 28 27 28 27 26 24 23 22 23 23 24 23 23 23 22 23 23 24 25 25 26 27 25 27 28 30 29 31 32 33 33 32 30 29 30 34 39 41 41 41 41
32 31 31 29 27 23 21 21 22 22 22 21 21 20 20 20 20 20 21 21 22 23 23 23 23 24 26 27 28 26 26 29 28 28 29 30 33 33 37 40 41 41 41
35 35 34 26 22 20 20 23 23 21 21 20 20 21 21 21 21 22 22 23 24 24 24 24 23 22 22 22 23 22 23 24 26 29 27 29 34 35 35 39 40 41 41
35 36 29 20 19 21 26 25 25 24 23 22 21 21 21 22 23 23 23 24 24 23 23 22 21 20 20 20 20 20 21 21 20 25 26 28 33 32 34 36 37 38 39
21 19 18 20 22 23 26 25 24 24 24 23 22 22 22 22 22 23 24 23 24 24 24 25 24 24 22 21 21 22 23 22 21 23 28 27 31 32 33 34 35 37 37
16 17 19 23 22 21 22 22 21 22 21 21 21 22 22 23 23 23 23 23 24 24 23 23 24 24 25 24 23 22 22 23 24 25 28 23 27 28 29 30 31 34 36
17 21 23 20 19 19 21 21 21 21 20 20 22 23 23 22 23 23 24 24 24 24 24 24 26 26 25 26 26 25 24 24 22 23 25 25 24 25 26 27 30 31 32
20 19 18 19 19 19 20 21 21 21 21 22 22 21 21 22 23 25 25 25 23 23 24 25 25 24 26 28 28 27 27 24 23 23 24 24 24 25 24 25 26 29 30

GFSMA_sfc_30mbdewp_003.txt.gz
Dewpoint
59 58 57 57 58 58 58 57 54 46 44 44 48 47 45 45 47 42 41 47 49 49 48 50 52 55 59 60 60 60 61 61 62 62 62 61 61 61 62 63 63 63 63
58 57 57 57 57 57 57 56 47 42 42 44 45 42 41 42 44 42 37 38 44 48 52 53 54 54 55 57 59 61 61 61 61 62 62 62 61 61 61 61 62 63 63
57 57 57 57 57 57 57 51 46 45 42 42 41 41 41 40 40 39 37 36 38 44 50 53 53 56 55 55 57 58 58 61 61 61 61 62 62 62 61 61 61 62 63
54 55 55 55 55 57 55 51 47 41 36 38 38 36 36 36 37 37 36 38 36 39 42 48 51 51 51 51 52 53 55 56 59 60 61 61 61 62 62 62 61 61 62
52 53 52 51 53 52 52 50 45 41 34 35 35 35 36 34 36 33 35 37 39 40 39 45 48 48 47 49 48 49 52 53 55 56 58 60 61 61 61 62 62 61 62
50 51 50 50 50 47 47 46 43 40 35 34 32 31 35 34 35 35 34 30 37 37 39 43 43 42 45 45 42 44 48 53 53 51 56 58 60 61 61 61 61 62 61
44 47 47 48 49 47 45 45 43 40 37 38 36 34 34 36 35 34 35 33 33 37 41 41 36 34 33 39 38 41 43 43 48 50 51 53 55 56 59 59 61 59 62
39 40 44 44 44 45 46 46 44 40 38 38 32 32 29 30 32 35 34 36 35 37 36 31 31 29 28 32 39 43 44 44 45 46 46 46 51 53 56 57 59 60 60
39 40 40 41 43 44 43 44 45 42 38 37 37 32 30 27 28 34 35 31 37 33 30 26 28 25 29 36 37 38 40 43 49 47 49 44 47 49 54 57 57 59 61
39 39 40 40 41 42 43 43 44 43 42 38 37 36 37 34 29 27 29 29 32 28 27 29 27 26 29 23 35 39 40 40 44 45 44 46 46 49 52 52 54 54 55
38 38 38 39 39 40 40 41 42 42 40 40 37 36 34 30 29 23 23 24 26 26 29 29 26 30 26 28 33 33 39 42 46 49 47 47 48 47 49 50 51 53 53
36 36 36 37 37 36 37 37 37 37 36 35 33 32 30 26 24 25 25 25 28 29 27 26 27 27 28 27 32 35 38 39 39 45 49 49 47 45 46 48 48 48 49
34 35 36 37 36 37 37 37 38 38 38 37 38 37 37 36 36 35 33 33 30 28 25 26 27 28 27 26 31 34 35 28 31 41 45 47 47 47 47 45 45 46 45
34 37 36 36 38 38 38 39 39 38 36 36 37 37 37 36 36 36 35 34 30 27 25 25 25 25 24 24 25 36 32 28 27 40 41 47 47 46 47 44 41 41 42
36 37 38 37 36 36 36 35 34 33 34 35 35 35 35 35 36 36 35 33 30 27 25 24 22 23 24 23 25 25 33 30 31 39 35 36 39 40 42 43 45 44 37
37 35 31 30 30 30 31 31 31 33 33 33 33 33 33 32 32 32 30 28 26 23 19 17 17 20 23 20 21 24 23 32 33 34 31 33 34 33 34 37 41 45 43
32 30 30 31 32 33 32 31 31 30 27 27 28 28 27 26 23 23 23 22 21 20 19 18 19 22 23 22 21 22 24 23 24 35 31 30 31 30 30 32 37 41 43
32 31 30 33 33 31 31 28 26 24 21 19 20 21 20 20 23 24 24 24 24 23 22 20 20 22 24 23 25 26 25 26 28 28 34 33 33 31 30 32 36 39 41
34 35 35 34 31 26 25 22 22 22 22 22 23 23 22 22 21 21 21 20 20 20 20 19 19 19 21 22 21 22 23 24 25 28 34 34 32 31 32 35 37 39 40
33 33 33 34 31 24 20 19 20 22 22 20 21 20 19 19 18 18 17 17 17 17 17 18 17 17 17 18 20 20 21 23 23 21 23 25 27 29 34 35 36 39 41
33 34 34 31 23 20 17 22 22 21 21 21 21 20 20 20 21 21 20 19 20 20 19 19 19 19 19 20 21 21 21 22 23 24 24 25 24 26 26 37 34 40 41
21 21 20 19 20 20 27 25 26 23 23 21 20 19 19 19 20 21 23 23 23 21 20 20 19 18 17 17 17 18 18 18 18 22 23 25 25 25 26 27 29 35 40
18 17 18 19 21 23 24 24 23 20 20 19 18 17 17 17 19 20 21 22 22 23 24 23 22 21 20 20 19 19 19 19 18 19 22 22 25 27 28 27 34 36 37
17 17 20 21 19 17 20 21 21 20 20 20 19 18 18 19 20 21 21 21 21 22 22 23 22 21 20 20 21 21 19 19 20 20 21 22 24 28 30 31 33 35 34
17 19 17 17 17 17 19 19 20 20 20 20 19 20 20 20 21 22 23 23 22 20 21 24 25 26 26 25 25 22 23 21 21 18 19 21 22 24 25 28 31 30 32
17 18 17 17 19 19 19 20 19 19 19 19 19 20 21 22 23 25 26 24 22 21 22 28 27 25 26 27 28 27 26 23 20 18 18 20 19 20 22 27 30 32 33

GFSMA_sfc_30mbdewp_006.txt.gz
Dewpoint
54 53 51 49 49 49 50 51 50 46 40 38 40 40 39 40 41 38 37 40 46 49 51 51 53 54 56 57 59 61 61 62 62 61 62 62 62 62 62 63 63 64 64
52 49 47 45 45 45 47 48 47 44 40 38 37 40 38 38 38 38 34 37 42 49 51 51 53 55 56 57 58 59 59 61 62 61 61 61 61 61 61 61 62 63 63
48 48 45 45 44 45 48 50 50 46 42 37 36 37 38 39 36 37 35 34 38 44 47 50 51 51 51 52 53 54 56 58 59 61 61 61 61 62 61 61 61 62 63
50 49 45 45 44 46 45 46 46 43 41 37 34 34 35 35 35 36 35 34 33 32 43 48 49 48 49 49 49 50 52 54 55 56 60 61 61 61 62 61 61 62 62
46 47 45 44 46 45 44 44 44 43 41 37 34 34 35 34 33 32 32 36 36 33 32 44 46 45 46 44 42 45 48 52 54 55 55 59 61 61 61 62 62 62 62
42 43 43 45 46 46 45 43 43 43 40 39 34 30 32 35 34 33 33 33 32 36 36 36 37 38 38 40 38 38 44 46 47 54 52 58 58 61 61 61 61 62 62
40 41 40 41 42 42 43 46 45 44 44 41 39 35 34 35 37 34 33 32 31 34 36 37 33 31 33 31 32 40 41 44 45 45 49 52 53 55 58 61 60 62 61
35 35 37 38 38 39 40 41 43 44 44 43 40 37 33 32 33 36 34 33 33 33 35 36 32 31 30 28 34 39 40 41 44 47 46 48 47 51 52 54 58 59 60
34 35 36 37 38 38 36 38 40 40 40 41 42 39 35 32 31 31 36 34 34 35 34 32 30 29 29 30 31 34 38 39 42 46 45 49 46 48 48 53 56 57 59
33 34 35 37 37 37 37 37 35 37 39 38 39 40 41 39 36 32 33 35 34 35 34 31 29 30 30 27 25 32 37 39 42 48 46 44 46 47 48 50 53 54 56
31 33 36 37 38 37 37 39 40 40 41 40 39 38 40 39 38 36 33 32 33 32 30 31 32 31 31 29 27 33 38 37 40 44 50 45 43 46 47 48 50 50 52
30 32 36 37 38 38 37 37 39 40 40 39 39 38 37 36 35 34 32 32 32 30 29 31 31 31 31 30 28 31 32 36 30 41 48 50 48 48 44 44 47 49 48
30 33 37 37 36 37 36 37 37 37 38 38 38 38 38 37 37 37 37 35 34 31 31 30 30 30 30 31 28 34 31 30 26 38 43 48 48 48 47 47 46 46 46
34 37 37 36 36 37 37 38 37 37 36 37 37 36 36 36 36 36 34 34 33 36 35 34 31 29 29 29 28 30 25 29 25 32 39 46 44 45 43 44 45 43 40
34 36 37 35 31 32 32 33 34 35 34 33 33 32 33 35 35 34 34 32 32 30 28 28 29 29 27 27 27 26 27 30 26 29 38 36 36 37 36 37 41 42 45
36 33 31 31 31 33 35 35 35 34 33 32 30 28 24 23 25 27 27 27 25 23 19 18 17 18 20 19 22 22 22 26 29 30 36 33 33 33 32 32 33 36 39
32 31 30 32 33 35 37 37 34 32 26 25 23 22 20 19 19 18 18 19 19 18 16 16 16 17 18 21 22 23 22 22 23 30 34 30 28 28 28 28 29 32 36
34 34 35 36 36 36 32 30 29 26 22 20 20 20 18 15 17 18 18 19 19 19 18 17 17 17 18 19 21 22 22 21 21 22 30 33 31 29 30 29 27 30 34
36 36 34 33 34 32 31 27 22 21 21 21 20 18 18 19 19 18 19 19 18 17 17 17 16 17 17 18 18 20 21 22 22 23 26 32 33 34 34 32 31 30 33
29 28 26 25 25 23 21 19 18 19 19 18 19 20 20 20 19 18 17 16 15 15 15 14 14 14 15 16 17 17 18 19 20 20 20 22 23 28 33 33 32 32 34
18 18 17 17 18 18 16 22 18 19 20 20 20 20 19 20 21 22 20 17 16 16 16 15 15 16 16 16 17 18 19 20 21 22 22 23 22 22 23 26 25 32 32
17 17 17 17 17 17 25 25 24 20 19 18 17 17 17 18 18 20 20 21 23 21 19 18 18 19 18 18 19 20 22 22 20 23 23 24 25 24 24 23 24 29 31
17 17 17 19 19 19 21 21 22 19 17 17 18 17 16 14 16 17 19 22 23 23 23 22 21 21 21 22 22 23 22 22 20 20 21 24 25 29 31 27 27 27 31
16 17 18 18 18 17 19 21 20 18 19 19 18 17 16 16 17 20 20 20 20 21 22 24 23 20 20 20 21 21 22 24 25 23 23 23 26 27 28 30 29 31 32
17 17 18 18 18 18 20 20 19 19 18 18 18 17 19 21 21 22 23 24 22 21 22 24 24 24 24 26 26 24 27 23 24 21 21 21 24 25 25 28 31 30 32
17 19 21 21 20 20 20 19 19 18 19 21 21 21 22 22 23 24 26 25 22 19 20 23 23 28 28 24 26 26 25 23 22 21 21 21 20 21 23 27 28 31 31

GFSMA_sfc_30mbdewp_009.txt.gz
Dewpoint
50 49 47 46 44 44 44 45 45 45 43 41 38 39 38 38 39 39 37 39 41 48 50 51 53 54 56 57 59 60 61 61 62 63 62 62 62 62 61 61 61 62 62
49 47 45 44 43 42 43 44 46 47 44 40 38 37 39 37 36 38 36 40 40 49 51 51 53 55 55 56 58 58 59 61 61 62 62 62 62 62 62 61 61 62 63
47 48 46 45 43 44 45 44 44 44 44 43 39 36 38 39 39 38 38 34 39 44 48 50 51 51 51 52 53 53 54 57 59 61 62 62 62 62 61 61 61 62 62
46 46 45 44 45 47 45 44 43 43 43 41 41 38 36 35 35 36 37 36 34 37 44 49 49 49 50 49 48 49 51 53 55 56 59 61 62 61 62 62 62 62 62
43 44 44 44 48 46 47 46 45 44 42 43 41 40 38 36 37 35 35 36 38 34 35 48 48 47 46 45 42 43 46 49 53 54 55 57 60 61 61 61 61 61 61
43 43 42 43 44 43 43 44 46 45 47 45 42 41 41 39 37 38 36 35 35 38 37 38 42 41 44 42 38 38 41 45 47 49 53 55 57 59 61 61 61 61 62
38 37 36 37 38 37 40 43 44 43 45 45 45 45 44 43 41 38 39 37 36 36 38 39 38 35 39 39 36 37 39 41 45 46 48 50 53 54 56 60 61 60 61
37 36 35 35 35 36 39 41 42 42 42 43 43 43 41 41 40 41 39 40 39 37 36 38 39 37 33 32 36 40 37 39 42 44 47 47 50 51 50 52 54 59 60
34 33 33 35 37 38 36 39 39 39 39 40 42 41 38 37 38 38 41 40 39 39 37 37 39 35 34 32 36 34 39 38 39 43 46 47 47 49 49 47 50 54 56
31 31 32 34 37 38 38 37 35 40 40 38 39 36 39 41 39 39 40 41 40 38 40 39 37 34 33 32 34 31 35 34 39 45 47 46 44 49 49 48 49 53 54
32 31 31 34 37 36 37 38 38 38 38 37 36 37 39 39 39 39 39 40 39 39 39 41 38 33 33 33 32 32 35 35 37 40 46 49 44 44 47 47 49 51 51
31 31 32 36 37 37 37 36 37 38 39 39 38 38 38 37 37 37 36 37 38 41 43 40 39 36 35 33 33 35 33 34 30 36 44 49 49 43 45 48 47 47 50
30 33 35 36 36 35 36 39 41 39 39 39 39 37 37 37 37 36 36 35 36 38 41 44 43 39 35 35 33 30 32 32 27 32 39 45 48 48 48 47 45 46 48
33 34 36 36 36 37 36 36 36 37 36 37 36 37 37 36 37 37 35 35 32 34 37 38 39 42 41 37 36 28 31 31 29 27 36 43 45 46 46 47 46 45 43
33 33 34 33 34 34 37 36 36 36 36 36 36 35 34 36 38 34 32 33 32 29 28 31 34 38 40 40 33 29 29 30 32 28 32 37 40 38 37 37 39 38 40
33 33 33 33 34 37 36 36 35 34 35 34 32 30 29 28 26 28 28 33 33 31 27 25 23 25 27 24 26 26 27 27 31 29 30 34 36 35 33 32 33 34 36
34 35 36 36 36 35 36 37 34 33 33 33 30 27 24 24 22 20 21 21 20 20 20 20 18 19 21 23 22 24 24 26 26 29 27 29 33 34 31 29 28 28 31
35 35 35 35 34 36 36 34 33 31 27 26 25 25 25 23 21 20 19 18 18 18 18 18 18 19 20 22 23 25 22 21 23 22 29 30 31 32 29 30 30 29 28
28 28 28 27 25 24 22 20 19 20 22 22 21 20 19 19 18 19 19 19 18 17 18 17 16 17 18 19 19 21 22 24 22 22 30 31 34 34 32 31 32 32 31
20 18 17 17 17 17 17 16 18 19 18 17 17 18 18 19 19 19 19 19 18 17 16 16 16 16 16 16 18 18 19 21 21 19 19 20 24 30 31 32 33 34 33
17 16 16 17 17 17 17 21 21 20 19 18 19 18 18 19 22 21 18 18 18 18 17 16 16 17 17 17 16 18 19 21 23 23 24 25 26 25 25 27 25 31 32
16 17 17 17 17 16 23 23 22 19 17 16 16 16 17 19 19 22 24 25 22 17 17 18 18 18 18 19 20 20 22 22 21 25 24 25 27 27 27 28 27 28 26
16 16 16 16 17 18 21 22 22 20 18 17 17 18 18 16 17 16 18 22 24 25 24 22 20 20 20 20 22 23 24 24 24 23 24 25 27 30 30 26 29 31 31
16 16 16 18 19 18 23 23 21 19 18 18 18 18 18 17 17 19 21 20 20 21 21 23 24 22 22 22 22 22 23 24 26 26 26 25 28 28 29 30 30 30 32
16 16 18 20 21 21 22 23 21 18 19 18 17 18 20 19 18 21 21 22 21 21 22 24 26 26 26 26 26 25 26 27 26 22 23 24 26 27 28 29 31 30 31
16 20 22 22 23 21 24 20 21 18 19 19 19 18 20 21 23 24 25 26 24 21 20 22 23 23 30 30 28 26 23 22 23 23 21 22 23 23 24 28 30 30 32

GFSMA_sfc_30mbdewp_012.txt.gz
Dewpoint
53 53 51 50 49 48 47 48 48 49 49 47 46 42 41 42 42 41 45 41 40 42 47 49 51 53 55 57 58 60 61 61 62 63 63 63 62 62 63 62 61 60 61
51 52 50 50 49 48 49 48 47 49 50 48 46 44 42 41 41 42 42 42 41 44 49 51 52 53 54 56 58 59 59 61 61 62 62 62 62 62 63 62 62 61 61
50 51 50 49 50 51 50 49 49 47 47 47 46 45 44 41 42 41 42 43 41 46 47 51 52 54 53 53 54 55 55 57 59 61 62 62 62 62 62 62 62 62 62
47 49 49 49 51 51 51 50 49 48 47 46 46 46 44 41 41 43 43 41 41 42 47 49 52 51 51 51 50 50 52 53 55 56 59 61 62 62 62 62 61 61 61
47 47 47 49 49 49 49 48 47 49 48 47 46 45 45 45 41 39 40 40 41 40 43 48 51 51 51 50 47 46 47 49 52 54 56 56 60 61 61 61 61 61 61
43 44 43 44 46 44 44 45 46 46 46 46 46 45 46 47 45 44 41 41 41 41 40 45 50 49 49 48 45 43 43 44 46 49 51 55 58 60 60 59 60 61 61
42 42 41 41 41 41 43 43 43 42 43 44 44 43 44 45 47 46 44 42 41 40 42 41 45 43 45 48 46 40 39 41 44 47 48 50 53 55 57 60 61 61 60
40 38 39 40 41 41 42 43 44 42 41 41 41 41 38 39 40 43 43 43 41 40 39 41 42 42 43 44 44 42 40 40 42 43 45 48 48 53 52 53 55 58 60
39 38 37 40 40 41 40 41 42 41 41 41 40 40 37 35 38 39 39 40 43 44 46 45 41 41 41 40 41 43 43 41 40 39 41 44 48 49 51 50 48 52 55
39 37 36 39 40 42 40 42 40 41 41 40 41 41 41 40 39 38 39 41 41 44 46 46 43 41 41 39 41 42 40 40 40 41 43 44 44 45 50 50 48 49 53
37 36 37 39 41 40 41 42 40 42 42 40 39 38 37 37 37 37 35 36 38 40 43 48 48 49 47 40 37 37 38 35 37 41 43 47 45 44 47 50 49 49 51
36 36 38 39 40 41 41 42 42 41 40 40 40 40 38 36 35 34 34 34 35 37 38 41 46 47 46 46 44 40 37 36 33 34 41 46 49 47 44 45 48 48 50
36 36 38 39 39 39 39 39 40 40 39 39 38 38 39 38 36 35 34 34 34 34 36 39 40 44 46 46 45 42 37 33 28 29 36 41 48 49 48 45 47 48 46
36 37 38 37 39 40 39 39 38 38 37 37 36 37 37 37 38 38 36 34 31 32 34 36 40 41 42 45 44 38 37 33 29 28 31 37 44 45 47 49 48 47 46
36 36 37 37 38 38 38 37 37 36 37 37 37 37 36 37 37 38 37 37 35 30 28 28 36 39 39 42 42 43 38 34 29 30 31 34 39 40 39 42 44 44 43
35 35 36 37 37 37 37 37 38 38 36 35 35 35 35 34 32 30 31 35 35 34 31 31 28 28 38 37 38 38 37 34 33 30 30 31 33 36 35 33 33 34 36
35 34 34 33 33 34 37 37 37 37 34 32 32 31 32 30 29 29 27 25 24 24 26 22 24 24 24 29 28 33 31 28 30 30 30 29 29 34 35 33 30 28 29
33 31 30 29 28 29 28 29 30 29 29 29 28 27 27 25 25 24 23 23 24 24 22 21 22 22 21 23 23 24 25 24 25 27 30 29 28 29 34 32 29 28 28
29 25 23 22 21 21 21 20 20 23 23 22 22 22 22 22 22 22 23 22 23 22 22 21 20 20 20 21 20 22 22 23 26 24 24 29 31 33 35 35 31 30 30
23 21 21 21 22 20 19 21 21 22 22 21 21 21 21 21 22 22 23 23 21 20 19 19 19 18 19 19 20 19 19 22 22 22 20 21 30 31 32 32 33 32 32
20 20 20 21 21 20 19 22 22 21 21 20 20 20 20 21 23 23 19 20 20 19 19 19 19 19 19 20 21 23 24 24 25 27 27 27 26 28 32 34 32 31 31
20 20 20 20 21 19 23 23 24 22 21 21 20 19 20 21 21 22 21 22 22 19 18 18 18 18 19 20 22 23 24 24 23 27 26 25 27 27 28 29 29 29 29
20 21 21 21 21 23 24 25 24 22 21 19 19 19 19 19 21 21 24 25 24 28 27 23 21 22 21 20 21 21 22 23 24 26 26 25 27 27 30 30 29 32 32
20 20 22 22 23 22 23 24 25 22 20 19 20 18 18 20 21 22 21 22 22 23 24 25 25 26 25 24 25 26 28 27 26 26 27 25 27 27 28 30 31 30 29
20 22 23 24 24 24 24 26 27 23 22 20 19 20 21 20 20 21 23 22 23 24 23 24 29 31 29 28 28 27 25 23 22 25 27 25 24 26 27 28 30 31 30
21 26 27 26 26 24 25 25 25 23 21 20 21 21 20 22 27 25 25 25 24 25 22 22 23 22 21 21 26 30 29 25 21 20 22 23 23 25 25 27 28 29 30

GFSMA_sfc_30mbdewp_015.txt.gz
Dewpoint
50 51 51 50 49 49 48 47 46 46 48 47 47 46 43 41 41 42 44 47 44 45 45 46 48 51 53 56 59 60 61 61 62 62 62 63 62 62 61 62 62 61 60
50 51 50 50 49 50 51 49 48 49 50 50 49 47 45 43 40 41 41 44 45 43 45 47 48 50 52 53 57 59 60 60 62 62 62 63 60 58 61 62 63 61 61
49 51 50 50 50 52 50 50 50 50 48 48 48 48 47 45 43 41 40 43 44 45 45 49 50 50 52 54 55 57 58 59 60 61 62 62 62 60 62 62 62 62 61
47 46 46 46 48 49 49 48 48 48 48 47 47 47 47 46 45 44 43 42 43 42 45 47 51 52 54 52 51 53 53 55 56 57 61 61 61 62 62 62 62 62 62
43 42 41 41 45 43 44 45 45 45 43 43 43 44 45 46 46 45 44 43 43 43 42 45 48 51 53 53 50 50 50 52 54 55 57 58 61 61 62 62 62 62 62
41 40 40 42 40 41 41 41 41 42 43 43 43 43 44 46 47 47 46 46 43 42 43 43 47 49 51 53 52 49 47 47 49 53 55 56 57 60 61 61 61 62 61
39 39 40 40 42 41 41 41 42 41 41 41 41 41 40 41 41 42 44 45 45 43 43 43 44 46 48 51 51 47 44 44 44 46 50 52 57 57 59 60 60 59 60
40 38 38 40 40 42 41 40 39 41 42 42 39 39 37 37 38 40 41 41 43 46 46 46 44 46 44 46 48 49 45 43 42 44 47 49 51 55 55 55 57 59 60
37 37 38 39 40 41 39 39 41 41 40 41 41 40 38 37 36 39 36 41 39 42 43 47 49 48 45 44 44 48 48 45 45 43 44 45 49 50 53 52 50 51 54
36 38 38 39 40 40 39 42 43 42 41 40 40 39 39 37 33 32 36 35 36 36 41 44 45 48 50 49 47 45 44 44 44 43 41 42 43 47 49 52 51 49 51
37 37 37 38 39 41 41 41 41 40 40 39 40 40 38 36 36 34 30 33 34 35 39 39 44 46 47 48 48 47 45 45 41 42 43 44 47 45 44 48 51 49 49
37 36 39 39 40 40 40 41 41 40 39 39 38 38 37 37 36 36 34 33 32 33 34 36 40 43 46 47 47 46 45 42 39 41 41 44 46 49 49 45 49 50 49
35 37 38 39 38 39 39 38 38 38 38 37 37 37 37 36 37 36 35 34 32 33 33 36 39 41 43 44 43 45 45 44 38 35 39 40 46 47 49 50 46 47 48
36 36 36 37 38 38 38 38 37 37 37 37 36 36 37 37 38 38 36 35 31 31 32 31 37 38 40 42 42 41 44 44 42 37 31 36 40 43 44 47 49 50 50
34 35 37 37 37 37 37 37 37 37 37 37 37 36 36 37 38 37 36 36 34 29 27 30 31 34 38 41 41 42 41 42 42 42 35 34 38 39 38 40 44 45 45
34 34 34 34 34 34 35 36 36 35 35 35 34 34 34 36 37 37 36 33 30 31 28 30 30 30 30 37 39 39 39 39 39 40 35 31 31 33 34 33 34 36 37
32 33 31 30 27 28 28 30 31 33 33 30 30 26 25 27 29 33 33 28 26 25 25 23 24 24 23 25 26 37 38 36 37 35 35 31 32 31 33 33 31 28 27
31 32 26 23 23 22 23 22 23 25 24 23 22 22 22 22 22 24 25 24 24 24 23 21 22 21 21 22 22 21 23 28 30 30 32 31 30 31 32 34 33 31 29
26 23 22 22 22 22 21 23 23 23 23 22 22 21 20 20 20 22 24 24 24 23 21 20 20 20 20 21 20 21 21 22 22 22 23 29 29 30 31 34 34 33 30
22 21 21 21 21 22 23 22 21 21 21 21 22 22 21 20 21 22 23 23 23 23 21 19 19 19 21 21 22 22 23 25 24 24 22 22 28 31 34 36 35 33 32
22 20 20 21 22 22 22 23 23 22 22 21 22 21 20 21 21 23 24 23 23 21 20 19 19 19 19 19 20 23 23 24 24 27 27 26 27 27 28 30 34 35 36
20 19 20 22 23 22 25 25 25 23 22 21 19 18 20 20 20 21 23 27 27 25 22 19 19 18 19 20 20 20 20 21 21 27 27 26 28 27 29 29 29 30 30
19 19 22 23 22 24 26 26 25 24 22 21 19 19 18 17 20 21 22 22 23 24 26 27 25 23 21 22 22 21 21 22 22 24 26 25 26 26 27 29 30 30 30
19 22 23 25 24 24 25 27 29 27 23 22 21 20 19 20 21 22 21 22 23 23 23 24 26 25 25 25 25 24 25 28 28 27 27 24 24 25 27 28 29 31 32
23 24 26 25 24 25 26 27 26 24 23 22 22 20 20 19 21 25 24 24 25 25 25 25 25 27 27 28 30 30 27 25 22 22 24 24 24 24 25 26 27 29 30
26 26 26 26 26 25 23 20 27 24 21 21 20 20 19 20 26 26 25 24 22 21 22 23 23 22 21 22 22 22 24 24 24 21 22 21 21 23 22 24 26 28 29

GFSMA_sfc_30mbdewp_018.txt.gz
Dewpoint
50 51 50 51 50 51 50 49 49 49 49 49 49 49 47 45 42 42 43 47 49 48 48 47 47 48 50 53 57 59 59 60 61 62 63 62 61 61 61 61 63 62 61
50 50 49 49 48 50 50 49 49 49 49 49 48 49 48 48 46 43 42 43 48 48 47 48 47 47 49 51 55 57 58 59 60 61 62 62 61 61 62 62 62 62 61
50 47 45 42 45 46 45 46 47 45 44 44 43 44 46 46 46 45 44 43 43 49 48 47 48 49 49 49 52 56 57 59 59 60 61 62 62 62 62 62 62 63 62
45 43 40 40 44 42 43 43 43 41 42 43 43 43 44 45 44 44 45 45 44 44 45 49 50 50 50 50 49 52 53 55 56 58 59 62 62 61 61 61 61 62 62
42 41 40 41 42 41 42 42 40 42 40 40 40 41 42 42 44 45 45 45 46 45 44 44 50 49 51 52 51 49 49 51 52 54 56 59 61 61 61 62 62 62 61
41 40 41 41 42 41 41 41 40 39 39 41 41 41 41 42 42 43 43 44 45 46 45 44 44 49 51 52 53 50 49 49 49 50 53 55 58 59 61 61 62 62 62
39 39 39 39 41 42 41 40 40 39 40 42 40 38 39 38 41 39 41 42 43 44 42 43 46 45 46 50 53 51 48 48 47 47 48 52 55 58 59 61 61 61 61
38 38 38 39 40 39 38 39 40 41 42 41 40 40 35 36 39 36 36 40 39 40 38 41 44 45 49 46 48 51 50 48 47 46 48 50 53 55 58 58 59 60 60
38 37 38 38 39 40 41 41 42 41 40 41 41 39 36 34 36 35 34 34 36 36 38 41 40 44 47 49 48 46 48 51 50 49 48 49 50 51 53 55 54 54 56
37 37 39 39 40 42 41 41 41 41 40 39 40 40 39 38 34 33 33 33 35 34 36 38 37 44 46 48 48 48 47 46 47 49 48 48 46 45 49 51 53 51 50
37 38 38 39 39 40 39 41 40 39 40 38 39 39 34 33 36 35 30 32 34 34 34 36 36 41 44 47 48 47 46 45 45 45 46 44 43 45 44 47 49 52 50
37 36 37 38 38 38 37 38 38 38 38 37 37 37 37 35 33 33 32 32 32 33 34 34 36 39 42 44 44 44 46 44 44 43 44 43 44 47 49 49 46 50 50
36 34 37 38 38 38 37 37 37 37 37 35 36 36 36 36 37 36 35 33 33 32 32 33 34 37 39 41 42 41 43 44 44 43 42 42 43 47 48 49 50 47 50
34 35 36 37 37 37 37 37 37 37 37 35 35 35 35 35 37 37 36 34 32 32 32 30 31 33 36 37 40 41 42 42 42 43 41 40 41 43 44 46 48 49 49
33 33 35 35 36 35 36 36 35 34 35 34 34 35 34 34 35 37 35 34 31 28 28 29 30 31 32 34 39 40 40 41 39 39 42 41 41 40 38 41 44 45 46
33 33 32 32 30 28 29 30 30 31 33 30 28 25 24 24 26 27 32 34 34 31 27 27 26 26 24 25 25 33 39 39 38 39 39 40 40 40 35 35 37 39 40
33 31 32 26 24 23 23 23 24 26 24 23 23 23 22 23 22 22 24 25 28 29 24 23 26 23 20 21 22 23 31 39 39 37 39 39 39 38 34 31 32 31 30
32 31 27 22 23 22 22 22 23 24 22 22 22 22 21 20 21 21 21 23 25 24 24 22 22 21 20 20 21 21 21 19 25 31 34 36 37 38 37 35 33 31 29
32 29 23 22 21 22 22 23 22 22 22 22 22 22 21 21 20 20 21 23 22 24 24 22 21 21 21 21 21 22 23 25 26 26 25 29 33 36 36 35 34 34 31
33 32 23 21 22 23 23 22 22 22 22 22 22 22 21 19 20 21 22 23 24 24 24 22 21 20 20 21 21 22 22 24 22 23 28 28 30 32 34 36 37 36 35
35 27 21 22 23 23 22 23 23 22 22 22 21 21 19 19 17 17 20 22 27 27 26 23 21 20 19 18 18 21 21 21 20 22 28 27 27 28 29 30 32 36 36
26 21 22 24 23 22 25 25 26 24 23 23 21 20 20 20 18 19 21 22 22 26 24 25 23 21 19 19 20 20 20 20 19 24 25 23 27 26 27 28 28 28 31
26 22 23 23 23 24 25 27 28 26 25 24 22 21 20 18 20 21 22 22 22 22 23 24 23 24 23 22 21 21 21 21 21 23 25 24 25 25 26 26 28 31 31
26 23 25 25 23 24 28 27 26 25 24 23 22 21 20 19 20 20 23 26 24 25 25 23 23 24 25 24 24 24 24 24 26 27 27 24 24 24 25 26 28 30 30
23 26 25 24 25 24 22 21 25 22 21 20 20 20 19 20 21 24 22 23 23 22 21 21 24 28 26 28 29 28 25 24 23 22 25 24 23 22 23 24 25 28 30
26 25 24 23 22 19 19 18 19 22 18 18 19 18 18 20 22 24 25 24 21 20 21 22 23 22 21 21 21 22 22 20 20 20 22 22 21 21 20 22 24 24 27

GFSMA_sfc_30mbdewp_021.txt.gz
Dewpoint
50 51 50 49 48 49 49 47 47 47 45 45 44 45 45 46 47 45 44 45 46 51 52 50 50 49 50 52 55 57 57 58 59 60 62 63 63 62 60 60 61 63 62
51 49 46 44 44 46 45 46 45 43 42 43 42 44 43 45 46 46 45 44 46 47 49 51 50 49 49 51 53 56 57 57 58 59 60 62 63 61 60 60 60 60 63
48 45 41 41 44 44 44 43 42 41 40 41 40 41 43 43 42 44 45 45 45 45 47 50 50 51 51 51 52 54 56 58 58 58 58 61 62 62 61 59 61 59 59
43 41 41 42 43 43 42 41 41 39 39 39 40 41 41 42 43 43 45 45 46 46 46 47 48 49 51 52 51 51 53 55 56 56 57 59 61 62 62 60 60 60 58
41 41 42 42 42 42 41 41 39 40 37 37 41 40 41 40 42 44 42 44 46 44 43 43 44 47 48 50 51 49 48 51 54 54 54 56 58 60 61 61 60 60 59
40 39 39 40 40 38 38 38 38 39 39 40 41 40 39 40 41 39 40 41 42 41 39 40 41 42 45 49 49 50 50 49 50 51 52 53 55 57 59 60 60 59 60
38 38 38 38 39 38 39 40 40 40 41 42 40 39 39 39 37 37 37 40 37 39 38 38 38 40 40 46 48 49 51 50 49 50 52 52 53 56 57 59 60 60 59
38 37 37 38 39 39 40 40 41 40 41 41 40 39 35 34 38 36 35 37 35 37 36 35 39 36 39 45 48 49 49 50 52 50 51 51 52 54 54 57 58 58 59
38 39 39 39 40 41 40 41 40 39 38 39 40 38 34 33 33 35 33 35 35 35 35 35 37 36 42 44 46 48 47 47 48 48 51 51 51 52 53 52 55 56 55
38 39 39 39 40 39 39 41 40 39 38 37 38 39 37 36 31 29 33 32 34 34 35 35 35 36 40 45 45 47 47 45 45 47 47 48 48 51 49 49 51 54 54
38 38 37 37 36 37 37 37 38 37 38 37 36 36 36 35 34 33 30 30 32 33 35 35 35 36 39 43 43 45 45 45 45 45 47 47 47 48 46 45 46 50 52
37 36 37 37 37 37 36 36 37 36 36 36 35 35 36 34 34 34 30 29 30 31 34 34 34 35 36 39 42 42 42 43 44 44 43 45 46 45 46 47 46 47 48
36 33 37 37 37 37 36 37 36 36 36 35 34 34 35 34 35 34 34 32 32 34 34 34 33 33 35 35 37 40 42 43 42 43 43 41 43 44 47 47 48 50 47
34 34 35 37 37 37 36 37 37 35 35 34 33 33 33 33 34 35 32 31 29 30 33 31 31 32 30 33 38 40 40 41 40 40 40 42 41 41 42 44 47 48 50
34 33 34 35 34 35 33 35 34 31 32 33 32 29 25 25 24 28 27 32 30 25 27 29 27 27 27 28 28 26 38 40 38 39 39 40 42 41 41 39 42 45 48
34 33 33 33 31 28 27 27 26 27 30 25 25 23 22 24 23 24 23 24 26 29 25 28 27 27 25 23 23 24 24 35 39 38 37 37 39 40 41 40 40 40 45
34 33 33 33 25 24 23 23 23 26 24 23 23 22 22 23 22 21 22 22 23 24 24 24 26 26 21 20 20 21 22 21 30 39 38 36 37 39 40 40 39 39 38
33 32 30 28 25 23 23 22 22 24 22 21 22 22 21 21 20 21 21 21 22 23 23 21 24 23 21 20 20 20 20 22 26 27 30 36 34 36 38 38 39 38 38
33 33 34 30 24 23 23 23 23 22 21 22 22 21 22 21 19 19 20 21 22 23 23 24 23 22 21 21 20 20 22 24 23 23 23 29 36 35 34 36 37 38 35
35 34 34 27 25 24 24 22 21 22 22 22 22 23 22 21 18 19 18 18 23 23 24 25 24 23 22 21 22 19 20 22 20 20 20 28 29 33 37 35 35 34 36
36 34 30 23 24 24 22 22 23 23 23 23 23 23 22 21 21 19 17 19 20 21 23 25 24 24 23 20 19 19 20 20 20 21 20 27 26 27 30 31 35 36 36
29 31 25 24 23 22 24 26 29 27 25 24 24 23 22 21 20 18 19 20 20 21 21 22 22 22 24 22 20 19 20 19 18 23 24 22 25 24 26 27 29 30 34
34 26 24 24 24 23 27 28 26 26 24 24 22 21 19 17 19 20 20 20 22 23 25 25 23 22 22 23 22 21 21 20 21 22 23 23 25 25 25 25 25 26 31
28 24 25 24 24 25 23 21 25 22 20 21 18 19 19 19 20 20 23 24 21 23 23 24 26 25 24 24 24 23 22 23 23 24 25 22 24 23 23 25 27 29 29
26 25 24 24 21 19 20 18 19 21 19 18 19 18 18 19 21 24 25 23 22 22 22 21 21 22 24 27 28 27 24 23 21 22 25 24 23 22 22 22 24 27 29
26 24 22 22 21 18 18 17 17 18 17 18 18 18 18 20 22 21 23 22 21 20 20 21 22 23 23 21 21 22 22 22 21 18 20 22 22 21 19 21 22 23 25

GFSMA_sfc_30mbdewp_027.txt.gz
Dewpoint
53 51 48 46 46 46 45 43 42 40 39 38 37 38 37 39 40 39 40 47 50 51 52 52 52 53 54 55 55 56 56 58 56 55 56 59 61 61 62 62 61 61 60
51 46 46 44 44 43 43 42 41 39 38 37 35 38 38 39 40 42 40 42 47 46 46 47 47 47 48 49 52 54 55 55 58 57 57 58 59 60 61 62 61 61 61
46 46 45 44 44 44 43 41 39 38 36 35 35 38 37 39 39 42 43 43 41 40 41 42 41 41 41 42 44 48 53 54 55 57 58 58 59 59 60 61 61 60 60
46 45 44 43 43 41 40 38 37 36 36 38 37 35 37 36 41 41 41 40 39 36 36 39 40 39 39 39 39 42 46 51 54 54 55 58 59 59 59 60 60 60 60
44 43 43 41 40 39 40 39 38 39 36 36 32 34 32 33 40 38 39 39 38 37 36 36 36 35 37 37 38 40 41 44 50 54 54 55 56 57 57 58 60 60 59
42 40 40 41 39 38 39 38 37 35 37 37 32 32 31 36 39 37 35 35 35 36 35 35 34 31 33 35 37 40 41 43 47 49 52 54 56 55 56 56 57 59 59
40 40 39 39 39 38 38 38 35 34 31 37 31 28 29 40 39 36 33 34 33 33 34 34 32 32 31 33 35 40 43 43 45 47 48 51 52 54 56 56 56 57 58
39 38 39 39 39 35 37 37 38 33 34 38 33 29 22 23 33 31 31 29 32 34 30 32 33 34 34 34 34 41 42 42 44 44 46 47 50 51 53 55 55 56 56
38 40 40 39 38 37 35 37 38 37 32 34 38 31 26 23 28 27 27 29 30 30 30 28 31 31 34 35 35 37 39 42 41 42 43 45 47 49 50 52 53 55 54
39 39 39 39 38 37 35 34 35 36 34 29 30 32 31 30 24 22 23 24 27 25 27 31 32 34 35 35 35 35 39 41 42 41 41 43 44 47 50 50 51 53 53
39 40 39 38 37 35 35 34 34 33 33 31 29 28 26 26 26 25 22 20 21 23 27 26 31 33 36 33 32 32 39 41 42 41 40 40 43 45 48 50 50 51 52
40 40 38 38 38 36 35 34 36 36 33 33 30 28 23 23 22 22 20 19 18 20 21 24 26 31 33 32 30 32 31 38 41 40 39 38 40 44 44 47 49 49 50
38 39 38 38 37 37 36 36 36 35 34 29 28 25 28 27 27 22 21 19 20 19 19 19 21 25 23 31 29 32 29 30 37 40 39 39 38 41 43 44 46 48 49
38 38 37 37 37 37 36 36 36 34 35 30 28 26 27 25 26 24 23 23 20 18 17 17 18 20 23 25 27 30 27 29 29 34 39 38 38 38 40 42 43 43 45
37 38 36 35 35 36 36 36 33 32 30 28 26 28 27 25 26 26 25 24 22 20 16 14 14 16 19 23 24 24 27 29 28 26 29 37 38 37 38 40 41 42 42
38 37 36 36 35 35 33 31 28 27 27 26 26 27 25 24 24 24 22 22 20 18 15 13 13 14 17 18 21 21 22 29 26 25 26 31 38 37 37 39 39 40 41
32 34 35 35 34 31 31 33 29 26 26 25 26 25 23 24 23 22 21 19 18 16 15 14 14 15 16 19 20 21 21 25 24 25 29 29 31 37 37 37 38 39 39
33 34 34 33 33 34 32 32 26 26 25 25 23 23 23 22 22 22 20 19 18 17 16 15 14 14 18 18 20 22 23 23 22 21 26 27 26 30 37 37 37 38 38
34 35 34 35 35 34 27 26 26 24 23 23 24 24 23 23 21 19 18 17 17 18 19 17 14 14 14 15 18 20 20 22 22 21 24 22 22 25 31 36 36 37 37
36 36 36 32 31 26 25 24 23 24 26 25 24 23 21 20 18 17 18 18 18 20 18 16 14 14 15 15 24 20 18 19 19 19 19 20 21 22 29 32 37 35 37
35 33 30 27 26 25 23 26 27 25 23 20 19 17 16 17 19 18 17 17 17 16 17 18 16 14 13 12 13 15 18 21 26 23 20 19 19 20 24 29 33 37 36
33 32 30 28 25 25 29 25 24 22 19 16 14 14 14 15 15 17 18 19 20 20 21 17 15 19 13 22 15 16 18 21 19 20 20 19 21 19 22 25 27 28 32
32 30 27 25 25 25 23 21 21 20 17 15 14 14 14 14 16 16 16 19 23 20 20 22 20 18 17 15 16 20 20 20 20 22 21 19 21 22 22 22 26 27 29
30 30 27 25 24 20 21 20 20 17 16 15 15 15 15 15 15 17 22 18 18 15 17 22 24 22 20 20 19 19 25 24 19 18 20 21 20 21 24 25 25 26 28
31 27 25 23 20 18 19 19 19 19 18 17 17 16 16 15 17 20 19 18 16 14 17 17 20 22 23 24 23 22 21 22 19 15 18 21 19 22 23 24 25 24 24
27 25 23 21 20 19 18 18 19 20 19 17 17 14 14 17 19 18 16 17 17 17 16 17 17 19 21 23 24 23 19 17 16 19 18 21 17 18 16 20 23 25 24

GFSMA_sfc_30mbdewp_030.txt.gz
Dewpoint
55 51 49 46 45 44 43 43 42 40 39 38 38 38 37 37 37 36 36 48 48 48 48 48 48 48 48 48 49 52 55 56 56 57 58 57 59 60 60 61 61 61 61
53 50 47 45 44 44 43 41 41 40 39 38 37 38 39 38 38 37 35 37 44 44 44 45 45 44 44 44 44 45 48 52 54 55 56 59 58 59 59 60 61 61 61
50 48 46 45 45 43 41 40 39 39 39 38 37 36 35 35 34 36 36 35 37 42 40 42 42 42 41 41 41 42 43 45 48 53 55 56 58 58 59 59 60 60 60
48 47 46 44 42 40 40 40 40 40 37 36 34 30 30 29 28 36 35 38 36 34 36 39 37 38 36 38 39 40 41 42 43 48 53 55 56 57 58 58 59 60 60
46 44 42 42 41 40 41 39 36 33 32 32 31 25 26 26 22 30 34 36 35 34 34 33 35 35 33 33 36 38 39 41 43 45 48 50 53 55 57 57 57 59 59
44 42 42 43 40 38 35 35 34 32 30 30 29 24 27 26 27 33 34 30 32 34 33 32 31 29 32 32 34 35 40 42 43 43 45 47 48 52 54 56 57 57 59
41 42 40 39 37 36 36 35 33 30 29 31 32 25 24 26 35 34 30 30 30 28 31 29 29 29 29 31 32 35 39 41 42 42 42 43 46 47 50 53 55 55 57
41 40 39 37 35 33 35 34 33 30 27 29 32 30 21 21 22 29 27 28 27 30 28 28 27 29 30 30 31 35 36 40 40 40 40 41 42 45 47 50 52 55 54
39 40 38 35 34 33 31 34 33 31 29 28 29 29 26 21 23 23 23 24 26 25 26 25 27 27 30 31 32 32 35 38 39 39 39 39 40 42 44 48 51 52 54
38 36 35 37 37 35 35 33 30 33 30 28 26 26 28 27 23 21 22 21 22 21 21 22 24 24 26 29 33 33 36 37 41 40 39 38 38 40 43 47 49 51 52
39 37 37 38 38 37 35 34 33 33 30 28 26 25 24 22 20 19 17 17 16 17 18 20 19 21 23 27 29 30 32 33 32 39 38 38 38 39 42 44 47 50 52
34 35 39 39 39 37 36 34 34 33 31 29 26 24 22 20 20 19 16 14 13 14 17 17 18 18 19 20 22 30 32 34 32 30 35 38 38 38 38 43 44 48 50
32 31 36 38 38 37 37 35 33 33 31 29 26 24 24 23 21 20 18 16 16 15 15 16 16 17 17 18 19 25 28 29 30 30 28 34 37 37 37 38 42 44 46
30 34 37 35 34 35 34 33 33 32 32 30 27 26 23 22 21 21 20 20 19 17 16 15 15 14 14 15 19 24 22 26 29 32 29 28 33 35 37 36 37 42 43
29 27 30 30 31 31 32 33 32 32 31 29 27 25 24 22 22 22 21 20 21 21 17 15 13 14 14 15 16 18 19 22 26 30 30 27 28 30 35 34 35 37 39
26 25 25 25 28 30 31 33 32 29 30 29 24 23 24 23 22 20 19 18 18 17 16 14 13 14 15 15 16 17 18 22 22 25 30 27 30 31 36 36 35 37 39
26 25 27 28 28 29 31 31 31 30 27 26 24 24 24 23 21 20 19 18 17 16 14 15 14 15 15 16 16 19 19 20 19 23 29 29 30 29 31 36 37 37 38
27 28 30 30 29 30 31 33 30 26 26 24 23 23 22 20 20 19 17 16 15 16 17 16 15 16 15 15 15 16 16 16 18 19 27 27 27 27 27 31 36 37 38
28 30 30 31 31 31 32 27 26 27 25 24 25 24 22 21 18 16 16 15 15 17 18 18 17 16 15 15 15 17 22 23 19 21 23 25 23 24 24 27 32 36 37
29 29 29 29 29 27 27 25 25 24 25 23 23 21 19 16 15 16 16 15 15 16 16 16 15 15 15 15 16 14 14 18 21 20 21 18 19 21 21 24 30 32 37
30 29 29 31 30 28 24 27 26 24 22 20 18 15 14 16 17 17 16 16 16 16 17 16 16 15 14 13 17 14 15 14 13 17 22 24 21 19 19 25 27 32 35
28 29 29 27 27 25 26 24 22 20 20 17 14 13 14 14 15 16 18 18 18 18 21 20 19 17 16 13 15 20 15 18 17 19 25 25 21 22 18 18 26 26 29
28 28 28 29 27 27 23 22 21 18 17 15 15 14 14 13 15 15 16 18 22 20 24 20 17 18 20 19 18 18 14 15 18 20 20 20 21 22 21 19 24 26 27
26 27 27 27 26 24 21 20 20 18 18 17 16 16 15 14 13 17 17 18 17 15 14 15 17 18 17 19 21 23 19 18 18 17 19 17 19 19 21 23 24 25 27
25 26 27 26 25 23 20 19 19 19 20 19 17 16 15 12 15 18 17 14 13 12 14 15 17 18 19 21 23 21 19 18 18 17 21 17 18 19 22 23 25 26 26
24 25 25 26 23 23 20 19 19 21 21 19 17 16 13 13 15 16 15 15 16 16 13 15 16 16 17 17 21 23 21 19 16 15 14 23 17 19 19 20 21 23 25

GFSMA_sfc_30mbdewp_033.txt.gz
Dewpoint
57 53 50 47 47 45 45 45 44 43 43 41 41 40 40 40 39 38 38 48 47 46 46 47 47 47 46 46 45 46 47 49 52 55 56 57 59 59 59 60 60 60 60
58 52 50 47 46 47 46 43 43 42 42 41 40 39 38 35 34 35 36 36 45 45 44 44 44 44 43 44 43 43 44 45 46 48 53 56 57 58 59 59 59 60 61
54 51 51 49 46 44 43 42 42 42 41 38 36 34 32 28 29 27 33 35 38 43 43 42 40 39 38 38 39 41 41 42 44 45 47 51 54 56 58 59 59 59 60
51 48 49 46 44 43 43 43 40 38 36 35 33 33 27 25 27 27 25 32 34 34 38 38 35 35 35 35 35 38 39 40 42 44 45 48 49 51 54 57 58 58 59
48 46 44 44 44 43 42 40 38 36 34 32 27 27 29 25 27 26 27 33 33 31 33 33 35 34 34 33 34 36 37 40 42 42 43 44 46 48 49 52 55 57 58
46 45 45 45 43 40 39 39 38 34 30 27 27 29 31 27 26 30 32 33 30 31 30 31 31 29 32 30 32 33 37 40 40 41 41 42 42 44 46 48 51 54 56
44 44 42 41 41 37 39 38 34 31 29 29 27 27 28 30 28 29 28 30 29 28 29 29 29 28 28 32 30 33 35 37 39 39 39 39 40 40 42 45 47 50 53
43 41 42 39 38 36 33 32 34 33 30 29 28 26 25 23 23 26 27 26 26 26 26 25 26 27 27 28 30 32 39 39 39 38 38 38 38 39 40 42 44 46 51
41 40 39 38 36 33 30 33 33 32 29 29 28 26 23 22 23 23 23 22 25 23 23 21 22 22 24 24 27 31 36 34 33 37 38 38 37 38 38 39 42 44 48
40 38 36 36 36 35 34 33 31 32 31 28 27 25 25 24 22 19 20 20 20 19 21 19 19 20 20 23 24 30 33 32 31 30 33 36 38 37 37 38 42 43 46
40 36 36 37 36 35 34 34 34 33 31 29 27 24 23 22 21 21 21 19 17 15 16 17 18 19 19 19 20 23 33 32 33 32 30 31 34 37 37 37 39 43 43
30 32 33 34 35 34 34 33 33 32 31 32 32 28 26 23 23 23 22 20 17 18 18 19 20 19 20 19 19 22 24 32 31 29 28 29 30 31 33 35 36 37 42
29 28 31 33 32 32 31 31 35 34 33 33 33 32 26 27 25 23 22 22 21 20 20 20 20 20 17 20 19 24 21 23 27 28 27 29 29 29 30 30 33 34 37
29 30 29 29 30 30 29 30 32 34 33 34 34 31 28 29 26 24 23 24 23 21 18 17 19 20 18 18 19 21 18 22 23 27 28 27 29 28 27 28 29 32 33
25 23 26 25 25 25 27 28 30 33 33 32 32 31 31 29 28 26 25 21 22 22 19 17 16 17 18 19 20 21 21 21 23 26 25 24 24 28 27 27 28 31 33
26 26 25 25 26 27 27 27 28 31 32 34 32 29 28 28 28 27 22 20 18 18 17 15 15 16 18 17 18 20 21 23 23 25 27 26 27 28 28 29 31 32 33
26 25 25 26 27 26 26 30 30 32 30 29 27 28 28 27 26 24 20 19 18 16 15 16 16 17 18 19 19 19 19 20 20 21 22 26 28 30 29 28 29 30 33
26 25 26 27 27 28 30 31 30 27 28 27 27 27 25 23 19 18 17 15 16 15 15 14 16 18 18 18 19 18 17 16 19 21 24 26 30 29 28 27 27 28 32
25 25 27 27 27 27 28 28 27 27 27 27 26 25 20 18 18 16 16 16 15 14 15 18 18 18 17 17 16 17 17 17 17 18 22 24 28 29 28 28 26 26 31
26 27 27 27 27 27 26 26 26 25 26 24 20 19 18 17 16 17 16 16 15 15 15 16 17 15 17 19 19 17 18 19 17 14 16 19 25 29 29 25 27 26 28
27 27 26 27 28 28 26 27 25 24 20 18 18 17 15 16 17 17 16 15 16 16 17 16 16 20 20 17 17 16 16 17 20 18 22 20 22 29 26 28 25 27 30
25 26 26 27 26 25 26 23 22 22 20 17 16 15 15 16 15 16 17 19 19 17 19 22 17 19 16 15 20 22 21 19 16 18 21 29 26 31 26 24 27 27 28
26 26 26 27 29 28 24 22 21 20 19 18 18 17 16 13 15 16 16 16 17 18 20 19 19 21 21 18 18 18 17 21 20 19 18 20 24 26 26 24 26 26 27
25 25 26 28 29 26 23 21 21 20 19 19 19 18 16 15 16 17 16 16 14 12 12 13 15 16 16 16 16 17 18 19 19 18 18 19 24 21 23 22 23 26 26
25 25 25 28 26 26 23 21 19 20 21 20 20 17 17 15 16 16 14 14 13 12 12 14 14 17 19 21 21 21 22 19 20 17 19 21 24 23 23 24 26 26 26
24 23 23 24 25 25 23 21 20 21 22 21 19 17 16 15 16 15 15 14 14 14 11 12 15 17 17 20 21 24 24 24 21 21 17 20 23 22 20 24 25 26 29